Location: Newark
(34.9500°N, 139.9667°E)
Time: 12:53:09
(UTC+00:00)

Vanguard 2 Rocket - Pass Details

Date: 11 December 2019
Orbit: 554 x 3326 km, 32.9° (Epoch: 27 January)

Event Time Altitude Azimuth Distance (km) Brightness Sun altitude
Rises 08:35:12 0° 246° (WSW) 6,879 13.4 -13.3°
Reaches altitude 10° 08:40:20 10° 245° (WSW) 5,543 12.3 -14.3°
Maximum altitude 08:55:26 68° 167° (SSE) 1,947 8.5 -17.3°
Enters shadow 09:01:24 24° 91° (E) 2,572 8.6 -18.4°
Drops below altitude 10° 09:03:48 10° 86° (E) 3,235 - -18.9°
Sets 09:06:02 0° 83° (E) 3,938 - -19.4°
